TimeMYT,TemperatureF,Dew PointF,Humidity,Sea Level PressureIn,VisibilityMPH,Wind Direction,Wind SpeedMPH,Gust SpeedMPH,PrecipitationIn,Events,Conditions,WindDirDegrees,DateUTC
12:00 AM,80.6,78.8,94,29.80,6.2,NE,1.2,-,N/A,,Mostly Cloudy,50,2012-11-03 16:00:00
1:00 AM,78.8,78.8,100,29.77,6.2,ENE,4.6,-,N/A,Rain,Light Rain,60,2012-11-03 17:00:00
2:00 AM,79,78,94,29.76,9,ESE,2.3,,,Rain,Light Rain,120,2012-11-03 18:00:00
2:00 AM,78.8,77.0,94,29.74,6.2,ESE,2.3,-,N/A,,Mostly Cloudy,120,2012-11-03 18:00:00
3:00 AM,78.8,77.0,94,29.74,6.2,NE,2.3,-,N/A,,Mostly Cloudy,50,2012-11-03 19:00:00
4:00 AM,77.0,75.2,94,29.74,6.2,NE,9.2,-,N/A,,Mostly Cloudy,40,2012-11-03 20:00:00
5:00 AM,77,75,93,29.77,9,SSE,3.5,,,,Partly Cloudy,160,2012-11-03 21:00:00
5:00 AM,77.0,75.2,94,29.74,6.2,SSE,3.5,-,N/A,,Mostly Cloudy,160,2012-11-03 21:00:00
6:00 AM,77.0,75.2,94,29.77,6.2,East,2.3,-,N/A,,Mostly Cloudy,90,2012-11-03 22:00:00
7:00 AM,78.8,75.2,89,29.77,6.2,ESE,5.8,-,N/A,,Mostly Cloudy,110,2012-11-03 23:00:00
8:00 AM,81,77,83,29.81,19,East,4.6,,,,Scattered Clouds,90,2012-11-04 00:00:00
8:00 AM,80.6,77.0,89,29.80,6.2,East,4.6,-,N/A,,Mostly Cloudy,90,2012-11-04 00:00:00
9:00 AM,84.2,78.8,84,29.80,6.2,East,5.8,-,N/A,,Mostly Cloudy,90,2012-11-04 01:00:00
10:00 AM,87.8,78.8,75,29.80,6.2,East,5.8,-,N/A,,Mostly Cloudy,80,2012-11-04 02:00:00
11:00 AM,89,77,61,29.80,19,East,6.9,,,,Partly Cloudy,80,2012-11-04 03:00:00
11:00 AM,89.6,77.0,66,29.80,6.2,East,6.9,-,N/A,,Mostly Cloudy,80,2012-11-04 03:00:00
12:00 PM,86.0,77.0,74,29.74,6.2,SW,8.1,-,N/A,,Mostly Cloudy,230,2012-11-04 04:00:00
1:00 PM,82.4,77.0,84,29.74,6.2,WNW,10.4,-,N/A,,Mostly Cloudy,290,2012-11-04 05:00:00
2:00 PM,77,76,96,29.74,3,SW,8.1,,,Rain,Light Rain Showers,230,2012-11-04 06:00:00
2:00 PM,77.0,77.0,100,29.74,3.1,SW,8.1,-,N/A,Rain,Light Rain Showers,230,2012-11-04 06:00:00
3:00 PM,78.8,77.0,94,29.71,1.9,West,3.5,-,N/A,Rain,Heavy Rain,260,2012-11-04 07:00:00
4:00 PM,77.0,77.0,100,29.74,3.7,ENE,3.5,-,N/A,Rain,Rain,60,2012-11-04 08:00:00
5:00 PM,75,74,95,29.75,4,West,4.6,,,Rain-Thunderstorm,Thunderstorms and Rain,270,2012-11-04 09:00:00
5:00 PM,75.2,73.4,94,29.74,3.7,West,4.6,-,N/A,Rain-Thunderstorm,Heavy Thunderstorms and Rain,270,2012-11-04 09:00:00
6:00 PM,75.2,75.2,100,29.77,6.2,East,3.5,-,N/A,Rain,Light Rain,100,2012-11-04 10:00:00
7:00 PM,75.2,75.2,100,29.77,6.2,South,3.5,-,N/A,Rain,Light Rain,180,2012-11-04 11:00:00
8:00 PM,76,74,93,29.81,7,SW,3.5,,,Rain,Light Rain,230,2012-11-04 12:00:00
8:00 PM,75.2,75.2,100,29.80,6.2,SW,3.5,-,N/A,,Overcast,230,2012-11-04 12:00:00
9:00 PM,75.2,75.2,100,29.83,6.2,East,6.9,-,N/A,,Overcast,100,2012-11-04 13:00:00
10:00 PM,75.2,75.2,100,29.83,6.2,ESE,2.3,-,N/A,Rain,Light Rain,110,2012-11-04 14:00:00
11:00 PM,76,75,95,29.84,7,NW,1.2,,,Rain,Light Rain,320,2012-11-04 15:00:00
11:00 PM,75.2,75.2,100,29.83,6.2,NW,1.2,-,N/A,Rain,Light Rain,320,2012-11-04 15:00:00